Regional Weather Roundup
Issued by NWS Lake Charles, LA

Home | Current Version | Previous Version | Text Only | Print | Product List | Glossary On
Versions: 1 2 3 4 5 6 7 8 9 10 11 12 13 14 15 16 17 18 19 20 21 22 23 24 25 26 27 28 29 30 31 32 33 34 35 36 37 38 39 40 41 42 43 44 45 46 47 48 49 50
000
ASUS44 KLCH 111710
RWRLCH
REGIONAL WEATHER ROUNDUP
NATIONAL WEATHER SERVICE LAKE CHARLES LA
1100 AM CST THU FEB 11 2016

Note: "fair" indicates few or no clouds below 12,000 feet with no
significant weather and/or obstructions to visibility.


ACROSS SOUTHEAST TEXAS

CITY           SKY/WX    TMP DP  RH WIND       PRES   REMARKS
BEAUMONT       SUNNY     72  55  55 SW16G28   30.21S
BEAUMONT CITY  FAIR      70  52  53 SW18      30.22S
ORANGE         SUNNY     69  52  53 SW13G22   30.22F
JASPER         SUNNY     66  46  48 SW12G18   30.21S
$$

ACROSS CENTRAL LOUISIANA

CITY           SKY/WX    TMP DP  RH WIND       PRES   REMARKS
LEESVILLE      SUNNY     66  47  50 SW15      30.17F
FULLERTON      FAIR      69  45  41 S8        30.14F
ALEXANDRIA INT SUNNY     69  44  40 W17       30.15S
ESLER FIELD    SUNNY     74  43  32 W17G26    30.15F
DERIDDER         N/A     67  47  48 SW12G20   30.20F
OAKDALE          N/A     69  49  48 SW10G21   30.19F
OPELOUSAS      FAIR      67  53  60 SW18G26   30.20F
$$

ACROSS SOUTHWEST AND SOUTH CENTRAL LOUISIANA

CITY           SKY/WX    TMP DP  RH WIND       PRES   REMARKS
SULPHUR        SUNNY     70  55  60 MISG      30.22F
LAKE CHARLES   SUNNY     68  56  65 W12       30.22S
CHENNAULT INT  SUNNY     68  55  64 SW16G25   30.21F
CAMERON PHI    SUNNY     63  59  88 SW13      30.26R
DEQUINCY       FAIR      69  49  49 SW12G17   30.21S
JENNINGS       FAIR      68  57  68 SW10G16   30.22F
LAFAYETTE      MOSUNNY   69  57  65 W17G25    30.23S
NEW IBERIA     MOSUNNY   70  58  65 W15G22    30.24S
ABBEVILLE      PTSUNNY   71  60  67 W14       30.24R
PATTERSON      MOSUNNY   70  55  60 SW18G29   30.23F
SALT POINT       N/A     62  58  86 VRB5      30.24F
$$

SELECTED SITES ACROSS THE REGION

CITY           SKY/WX    TMP DP  RH WIND       PRES   REMARKS
HOUSTON BUSH   SUNNY     70  48  45 W13G21    30.20S
HOUSTON HOBBY  SUNNY     71  50  47 SW21G26   30.20S
GALVESTON      SUNNY     68  60  75 SW20G25   30.23S
COLLEGE STAT   SUNNY     69  41  36 SW13      30.18S
CONROE         SUNNY     68  45  43 SW12      30.20S
HUNTSVILLE     SUNNY     69  41  36 SW17G25   30.17F
LUFKIN         SUNNY     69  39  33 SW14G22   30.17F
SHREVEPORT     MOSUNNY   71  36  27 SW15G23   30.11S
MONROE         SUNNY     68  40  35 W15G25    30.12S
NATCHEZ MS     SUNNY     66  48  52 SW16G23   30.16F
BATON ROUGE    SUNNY     70  53  54 W17G24    30.21F
N.O. INTL ARPT MOSUNNY   71  55  56 W17G25    30.23F
SLIDELL        PTSUNNY   66  56  70 SW12G20   30.22F
$$

MARINE REPORTS

STATION/POSITION TIME  SKY/WX   TEMP    WIND        PRES    VSBY
                                AIR SEA DIR/SP/G
                 (UTC)          (F)     (DEG/KT/KT) (MB)    (MI)
BUOY 30 S HIGH I 1650            60 58  230/ 10/ 12 1023.6S
WVE H/P(F/S)=  3/ 6

SEA RIM ST PARK  1700            63     230/ 11/ 14 1023.9S
PORT ARTHUR      1600               54  240/ 15/ 19 1023.2R
SABINE PASS N    1600               56  250/  9/ 15 1024.5R
TEXAS POINT      NOT AVBL
CALCASIEU PASS   1600               58  240/  9/ 11 1022.5R
LK CHARLES BEACH 1600               54              1023.6R
MARSH ISLAND     NOT AVBL
FRESH WATER LOCK 1600               52  220/ 11/ 15 1024.0R
AMERADA PASS     1600               50  210/  4/  9 1024.6R
$$



USA.gov is the U.S. government's official web portal to all federal, state and local government web resources and services.